Location: Bannatyne
(13.0833°N, 59.5333°W)
Time: 23:50:30
(UTC+00:00)

X-37B - Visible Passes

Search period start: 13 June 2021 00:00
Search period end: 23 June 2021 00:00
Orbit: 386 x 389 km, 45.0° (Epoch: 10 June)

Date Brightness Start Highest point End Pass type
(mag) Time Alt. Az. Time Alt. Az. Time Alt. Az.
20 Jun 1.5 23:09:25 10° SSW 23:12:10 27° SE 23:14:54 10° ENE visible
21 Jun 4.2 00:47:12 10° WNW 00:47:28 11° WNW 00:47:28 11° WNW visible
21 Jun 3.7 08:58:54 10° N 09:01:18 20° NE 09:03:42 10° E visible
21 Jun 2.6 23:47:28 10° WSW 23:50:19 30° NW 23:53:10 10° NNE visible
22 Jun 0.5 22:48:49 10° SW 22:51:59 87° SE 22:55:09 10° NE visible
